Skip to main content Skip to accessibility
This website is not compatible with your web browser. You should install a newer browser. If you live in Jersey and need help upgrading call the States of Jersey web team on 440099.
Homegov.je

Information and public services for the Island of Jersey

L'înformâtion et les sèrvices publyis pouor I'Île dé Jèrri

  • Choose the service you want to log in to:

  • gov.je

    Update your notification preferences

  • one.gov.je

    Access government services

  • CAESAR

    Clear goods through customs or claim relief

  • Talentlink

    View or update your States of Jersey job application

Local METARs

METAR EGJJ 170320Z AUTO 32009KT 290V350 9999 FEW033/// OVC041/// 08/02 Q1023

METAR EGJB 170250Z 33013KT 9999 FEW016 SCT035 08/02 Q1023

METAR LFRD 170330Z AUTO 34014KT 9999 OVC036 08/03 Q1024 TEMPO 32015G25KT

METAR LFRC 170330Z AUTO 32010G20KT 290V350 9999 SCT033 OVC041 07/01 Q1022

 

 

 

​Apologies to the disruption to normal service. Commercial Aviation Services are available from the Jersey Met Forecaster 01534 448765.

Times are in Greenwich Mean Time (GMT) and not British Summer Time (BST). They will be one hour different during BST.

Back to top
rating button